Location: ?????
(31.8092°N, 35.2590°E)
Time: 15:05:22
(UTC+00:00)

Cosmos 1459 Rocket - Pass Details

Date: 20 June 2021
Orbit: 937 x 999 km, 83.0° (Epoch: 31 July)

Event Time Altitude Azimuth Distance (km) Brightness Sun altitude
Rises 19:08:30 0° 351° (N) 3,600 8.0 -23.8°
Reaches altitude 10° 19:10:59 10° 349° (NNW) 2,654 7.1 -24.2°
Maximum altitude 19:16:59 69° 267° (W) 1,006 4.1 -24.9°
Enters shadow 19:19:00 43° 199° (SSW) 1,305 4.4 -25.2°
